Content
SEND FEEDBACK

Daily
Averages
Monthly
Summary
Canada

VANCOUVER, BRITISH COLUMBIA


Home > North America > Canada > British Columbia
Elevation: 7 feet     Latitude: 49 11N     Longitude: 123 10W

WEATHER
 
SELECT A DAY
Number of Records: 249,596;   Date Range: 5/15/97 - 8/20/14
 
SHARE

PRINT THIS DATA

[ ← Previous Day ]
WEATHER ALMANAC - APRIL 20, 2013
[ Next Day → ]
[ °C ]   °F
Weather ElementAverageHighLow
Temperature50.9 °F57.2 °F (1:15 pm)46.4 °F (4:55 am)
Dewpoint42.5 °F44.6 °F (12:35 am)39.2 °F (5:55 pm)
Humidity73.8 %93 % (4:55 am)55 % (4:15 pm)
Barometer30.19 in30.22 in (10:55 am)30.14 in (12:35 am)
Wind Speed6.3 mph10.4 mph (1:15 pm)
Wind Gust17.3 mph (4:55 pm)
Weather ElementAverage
Visibility10 mi
Wind DirectionSSW (203.7 °)

Weather ElementTotal
Precipitation---
Heating Degree Days13.2 (Base 65)
Growing Degree Days1.8 (Base 50)
Averaged from 67 records on April 20, 2013
WEATHER CONDITIONS BREAKOUT
WIND DIRECTION BREAKOUT
WEATHER BY HOUR - APRIL 20, 2013
[ °C ]   °F
Local TimeTemperatureDewpointHumidityBarometerVisibilityWind DirectionWind SpeedGust SpeedPrecipitationEventsConditions
12:35 AM50.0 °F44.6 °F82 %30.14 in10.0 miSSW (200°)6.9 mphMostly Cloudy
12:55 AM48.2 °F44.6 °F87 %30.14 in10.0 miSSW (200°)5.8 mphOvercast
1:15 AM48.2 °F44.6 °F87 %30.15 in10.0 miSSW (200°)8.1 mphOvercast
1:35 AM48.2 °F44.6 °F87 %30.15 in10.0 miSSW (200°)6.9 mphOvercast
1:55 AM48.2 °F44.6 °F87 %30.15 in10.0 miSSW (200°)8.1 mphOvercast
2:15 AM48.2 °F44.6 °F87 %30.15 in10.0 miSouth (190°)8.1 mphOvercast
2:35 AM48.2 °F44.6 °F87 %30.15 in10.0 miSouth (180°)6.9 mphScattered Clouds
2:55 AM48.2 °F44.6 °F87 %30.15 in10.0 miSouth (190°)6.9 mphMostly Cloudy
3:15 AM48.2 °F44.6 °F87 %30.15 in10.0 miSSW (200°)8.1 mphMostly Cloudy
3:35 AM48.2 °F44.6 °F87 %30.16 in10.0 miSSW (200°)8.1 mphMostly Cloudy
3:55 AM48.2 °F44.6 °F87 %30.16 in10.0 miSouth (190°)6.9 mphOvercast
4:15 AM48.2 °F44.6 °F87 %30.16 in10.0 miSouth (180°)5.8 mphOvercast
4:35 AM48.2 °F44.6 °F87 %30.17 in10.0 miSouth (190°)8.1 mphMostly Cloudy
4:55 AM46.4 °F44.6 °F93 %30.17 in10.0 miSSW (200°)6.9 mphScattered Clouds
5:15 AM48.2 °F44.6 °F87 %30.17 in10.0 miSSW (200°)6.9 mphMostly Cloudy
5:55 AM46.4 °F44.6 °F93 %30.18 in10.0 miSSW (200°)5.8 mphOvercast
6:15 AM46.4 °F44.6 °F93 %30.19 in10.0 miSSW (200°)6.9 mphOvercast
6:35 AM46.4 °F44.6 °F93 %30.19 in10.0 miSSW (200°)5.8 mphOvercast
6:55 AM46.4 °F44.6 °F93 %30.19 in10.0 miSouth (190°)6.9 mphOvercast
7:15 AM48.2 °F44.6 °F87 %30.19 in10.0 miSouth (190°)6.9 mphOvercast
7:35 AM46.4 °F44.6 °F93 %30.20 in10.0 miSSW (200°)5.8 mphMostly Cloudy
7:55 AM46.4 °F42.8 °F87 %30.20 in10.0 miCalmClear
8:15 AM48.2 °F42.8 °F82 %30.20 in10.0 miSouth (190°)4.6 mphClear
8:55 AM50.0 °F42.8 °F76 %30.20 in10.0 miSSW (200°)3.5 mphScattered Clouds
9:15 AM50.0 °F42.8 °F76 %30.21 in10.0 miSouth (190°)4.6 mphScattered Clouds
9:35 AM50.0 °F42.8 °F76 %30.21 in10.0 miSSW (200°)5.8 mphPartly Cloudy
9:55 AM50.0 °F42.8 °F76 %30.21 in10.0 miSouth (180°)4.6 mphPartly Cloudy
10:15 AM50.0 °F42.8 °F76 %30.21 in10.0 miSSW (210°)6.9 mphScattered Clouds
10:35 AM50.0 °F42.8 °F76 %30.21 in10.0 miSouth (190°)6.9 mphMostly Cloudy
10:55 AM51.8 °F42.8 °F71 %30.22 in10.0 miSouth (190°)5.8 mphMostly Cloudy
11:15 AM51.8 °F41.0 °F67 %30.22 in10.0 miSouth (180°)4.6 mphScattered Clouds
11:35 AM53.6 °F42.8 °F67 %30.22 in10.0 miSSW (200°)6.9 mphPartly Cloudy
11:55 AM53.6 °F42.8 °F67 %30.22 in10.0 miSouth (190°)8.1 mphPartly Cloudy
12:15 PM53.6 °F42.8 °F67 %30.22 in10.0 miSouth (190°)4.6 mphPartly Cloudy
12:35 PM55.4 °F44.6 °F67 %30.22 in10.0 miSouth (190°)3.5 mphScattered Clouds
12:55 PM55.4 °F42.8 °F63 %30.21 in10.0 miSouth (190°)5.8 mphMostly Cloudy
1:15 PM57.2 °F44.6 °F63 %30.20 in10.0 miSSW (200°)10.4 mphMostly Cloudy
1:35 PM55.4 °F44.6 °F67 %30.20 in10.0 miSouth (170°)4.6 mphMostly Cloudy
1:55 PM55.4 °F44.6 °F67 %30.19 in10.0 miSouth (180°)5.8 mphMostly Cloudy
2:15 PM55.4 °F44.6 °F67 %30.19 in10.0 miCalmMostly Cloudy
2:35 PM55.4 °F44.6 °F67 %30.19 in10.0 miSSW (200°)4.6 mphMostly Cloudy
2:55 PM57.2 °F42.8 °F59 %30.20 in10.0 miWest (270°)9.2 mphMostly Cloudy
3:35 PM55.4 °F44.6 °F67 %30.20 in10.0 miNW (320°)5.8 mphPartly Cloudy
3:55 PM57.2 °F42.8 °F59 %30.20 in10.0 miWSW (240°)6.9 mphPartly Cloudy
4:15 PM57.2 °F41.0 °F55 %30.20 in10.0 miWest (260°)10.4 mphPartly Cloudy
4:35 PM55.4 °F41.0 °F58 %30.20 in10.0 miWSW (240°)8.1 mphScattered Clouds
4:55 PM55.4 °F41.0 °F58 %30.20 in10.0 miSW (230°)9.2 mph17.3 mphMostly Cloudy
5:15 PM55.4 °F41.0 °F58 %30.20 in10.0 miWSW (250°)8.1 mphScattered Clouds
5:35 PM55.4 °F41.0 °F58 %30.20 in10.0 miWSW (250°)5.8 mphScattered Clouds
5:55 PM53.6 °F39.2 °F58 %30.20 in10.0 miSW (230°)6.9 mphMostly Cloudy
6:15 PM53.6 °F39.2 °F58 %30.20 in10.0 miWSW (240°)6.9 mph16.1 mphMostly Cloudy
6:35 PM53.6 °F39.2 °F58 %30.20 in10.0 miSW (230°)6.9 mphMostly Cloudy
6:55 PM53.6 °F39.2 °F58 %30.20 in10.0 miWSW (240°)5.8 mphMostly Cloudy
7:15 PM51.8 °F39.2 °F62 %30.20 in10.0 miSW (230°)6.9 mphMostly Cloudy
7:35 PM51.8 °F39.2 °F62 %30.20 in10.0 miWest (270°)6.9 mphOvercast
7:55 PM51.8 °F41.0 °F67 %30.20 in10.0 miSW (220°)6.9 mphOvercast
8:15 PM50.0 °F41.0 °F71 %30.20 in10.0 miSSW (210°)5.8 mphOvercast
8:35 PM50.0 °F41.0 °F71 %30.20 in10.0 miSW (230°)3.5 mphOvercast
8:55 PM50.0 °F39.2 °F66 %30.21 in10.0 miSSW (200°)4.6 mphScattered Clouds
9:15 PM50.0 °F39.2 °F66 %30.21 in10.0 miSW (220°)5.8 mphMostly Cloudy
9:35 PM50.0 °F39.2 °F66 %30.22 in10.0 miSW (230°)6.9 mphMostly Cloudy
9:55 PM50.0 °F39.2 °F66 %30.22 in10.0 miWSW (240°)5.8 mphOvercast
10:15 PM50.0 °F39.2 °F66 %30.22 in10.0 miSW (220°)6.9 mphOvercast
10:35 PM48.2 °F39.2 °F71 %30.22 in10.0 miSSW (210°)6.9 mphMostly Cloudy
10:55 PM48.2 °F39.2 °F71 %30.22 in10.0 miSSW (210°)4.6 mphOvercast
11:15 PM48.2 °F39.2 °F71 %30.22 in10.0 miSSW (210°)6.9 mphMostly Cloudy
11:35 PM46.4 °F41.0 °F81 %30.22 in10.0 miSSW (210°)5.8 mphMostly Cloudy
Hourly data recorded from CZBB, located miles away from Vancouver, British Columbia







STORIES FROM OUR PARTNERS